Torna al catalogo

KUIPER-00248

AttivoComunicazioniLEO
NORAD 67153·PAYLOAD·🇺🇸 United States

Lanciato Dec 15, 2025 da Cape Canaveral Space Force Station

Loading…

Prossimi Passaggi (prossime 24 ore)

TLE

AggiornatoSource: CelesTrak SupGP

Epoca: Sep 14, 2026, 22:45 UTC

1 67153C 25301W   26257.94804398 -.00012942  00000+0 -16941-2 0  2579
2 67153  51.8975 283.8041 0000468  70.2670 161.5488 14.79943681    11

Traccia KUIPER-00248 in tempo reale con AllMySat

Download on the App Store